TIME,DELAY(SENSOR),PRES,T(CTD),SAL,OXYGEN,RAWTEMP,T(OPTODE),TCPHASE,FLUOR,BETA(BETA700),BETA(BETA412),BETA(BETA440),CDOM,C(CSC),ED(ED412.40),ED(ED444.00),ED(ED489.70),ED(ED554.30),LU(LU411.80),LU(LU443.40),LU(LU489.60),LU(LU554.10),COMP,TILTX,TILTX(TILTY),CHECK
1348607836,5811,498.0199890136719000,6.1620998382568360,34.1673011779785160,64.9579162597656200,613.6218872070312000,6.1433348655700680,50.9468803405761700,52,105,88,80,81,15225,2147752045,2147422619,2148003766,2147870491,2147631076,2147076187,2148249572,2147201060,2626,5,12,35091
1348608027,5807,484.0199890136719000,6.4170999526977540,34.1445007324218750,75.0455703735351600,605.5200805664062000,6.4057998657226560,49.5789299011230500,52,105,90,80,79,15224,2147750930,2147422784,2148005421,2147873819,2147634157,2147080146,2148248466,2147200521,136,4,13,23314
1348608148,5807,473.1400146484375000,6.6581001281738280,34.1288986206054700,83.1677703857421900,598.4271850585938000,6.6350607872009280,48.5172691345214840,52,107,87,79,79,15223,2147749595,2147422866,2148003648,2147871780,2147631744,2147084388,2148243648,2147199369,295,4,12,24707
1348608271,5808,461.7600097656250000,6.9116997718811035,34.1166000366210940,92.3982009887695300,590.0504760742188000,6.9052047729492190,47.3563385009765600,51,105,88,81,79,15222,2147751049,2147422765,2148002368,2147875419,2147632850,2147083446,2148241389,2147198509,3400,5,13,59327
1348608381,5809,451.3999938964844000,7.0453000068664550,34.1184005737304700,95.2124481201171900,586.4337158203125000,7.0216407775878910,46.9944686889648440,52,105,87,80,78,15223,2147749321,2147421110,2148006747,2147871542,2147630500,2147085339,2148244123,2147198875,1079,5,13,61355
1348608502,5811,439.5899963378906000,7.2172999382019040,34.1148986816406250,98.8481826782226600,581.1265258789062000,7.1922779083251950,46.5206489562988300,51,106,86,79,79,15224,2147746934,2147422802,2148006729,2147872841,2147628690,2147078738,2148240310,2147202532,1967,5,13,44148
1348608614,5808,428.4599914550781000,7.3488001823425290,34.1105995178222660,104.0963973999023400,575.9257202148438000,7.3592510223388670,45.8884811401367200,51,105,88,80,78,15220,2147747474,2147421677,2148004973,2147872100,2147628013,2147085906,2148241737,2147200146,3088,4,13,23068
1348608724,5809,417.6700134277344000,7.5515999794006350,34.1076011657714840,113.9736022949218800,570.4249267578125000,7.5355911254882810,44.8066406250000000,51,106,92,79,77,15221,2147743405,2147423277,2148002020,2147873654,2147630747,2147091858,2148236242,2147201929,2650,4,13,54811
1348608834,5805,407.2799987792969000,7.7613000869750980,34.1032981872558600,121.8768997192382800,564.0161743164062000,7.7406997680664060,43.9397888183593750,51,106,90,81,78,15224,2147745627,2147421760,2148004534,2147872630,2147624356,2147089472,2148239433,2147201170,3433,4,13,29505
1348608957,5810,396.4400024414062500,7.8969001770019530,34.1049003601074200,127.4749984741211000,559.0396118164062000,7.8997340202331540,43.3370704650878900,51,105,88,82,76,15222,2147746596,2147421129,2148002688,2147871341,2147624466,2147087030,2148234834,2147205046,2620,4,13,40151
1348609089,5805,385.5799865722656000,8.2664003372192380,34.1088981628418000,134.9004058837890600,547.6021118164062000,8.2644386291503900,42.4737205505371100,50,107,88,80,76,15224,2147744365,2147423460,2147998774,2147870217,2147623122,2147093494,2148240374,2147204278,2076,4,13,56219
1348609234,5810,374.9100036621094000,8.5257997512817380,34.0947990417480500,149.5375976562500000,539.8922729492188000,8.5096721649169920,41.1030616760253900,51,105,88,81,75,15226,2147744374,2147420251,2148002413,2147870857,2147624393,2147096923,2148234084,2147203291,2894,4,13,29402
1348609399,5807,364.4599914550781000,8.8130998611450200,34.0759010314941400,163.2339019775390600,531.1398925781250000,8.7874965667724610,39.8771591186523440,50,104,89,80,74,15228,2147745152,2147419794,2148000146,2147869906,2147621997,2147102016,2148231533,2147202249,3476,4,13,64798
1348609578,5809,352.5499877929687500,9.2593002319335940,34.0810012817382800,175.7738037109375000,516.1934814453125000,9.2605657577514650,38.7016601562500000,49,103,86,80,73,15226,2147744155,2147422738,2148000274,2147872054,2147621184,2147104155,2148227785,2147199424,3192,4,13,12067
1348609710,5805,340.8099975585937500,9.7124004364013670,34.0920982360839840,185.4600982666015600,502.5264892578125000,9.6917009353637700,37.8022499084472660,49,104,87,80,72,15222,2147737234,2147423515,2148001005,2147873974,2147618102,2147102244,2148226660,2147202285,2023,4,13,32797
1348609822,5810,330.2699890136719000,10.0136995315551760,34.1081008911132800,191.9364013671875000,491.8201904296875000,10.0285196304321290,37.1942405700683600,49,109,90,80,72,15221,2147737472,2147422902,2148001124,2147874002,2147616539,2147107300,2148223122,2147203611,2263,4,13,26482
1348609943,5808,319.1400146484375000,10.6527996063232420,34.1361999511718750,197.0930023193359400,473.1594848632812500,10.6137399673461910,36.5543098449707000,50,109,90,80,72,15219,2147736466,2147422427,2148001554,2147874102,2147612882,2147112073,2148227117,2147204635,2297,4,13,63677
1348610064,5809,308.6700134277344000,10.8301000595092770,34.1481018066406250,201.2546997070312500,466.6102905273437500,10.8186101913452150,36.1878700256347660,49,107,89,80,72,15221,2147735990,2147421540,2148003245,2147871067,2147610624,2147113892,2148220562,2147202660,1734,4,13,12917
1348610198,5811,298.0299987792969000,11.3611001968383790,34.1772003173828100,201.3896026611328000,449.7909851074219000,11.3435602188110350,35.9047584533691400,49,106,86,81,71,15220,2147734345,2147419483,2148002660,2147871579,2147610560,2147117165,2148218678,2147204480,1800,4,13,19340
1348610352,5811,286.3699951171875000,11.7032003402709960,34.1871986389160160,204.3166961669922000,436.6857910156250000,11.7514696121215820,35.5151596069335940,48,106,89,80,71,15219,2147730614,2147424676,2148005577,2147874733,2147603849,2147116589,2148217737,2147204690,3505,3,14,64897
1348610497,5806,272.8800048828125000,12.2903003692626950,34.2205009460449200,205.2982025146484400,419.5491027832031000,12.2834901809692380,35.1834297180175800,49,105,89,82,69,15216,2147731072,2147434816,2148034980,2147871771,2147603099,2147130980,2148229677,2147204489,2830,4,14,49686
1348610596,5809,261.1799926757812500,13.2980003356933600,34.2779006958007800,203.3928070068359400,387.4238891601562500,13.2770595550537110,34.7932395935058600,50,107,89,81,70,15217,2147730834,2147434441,2148032356,2147872886,2147603666,2147130715,2148228754,2147209261,2958,3,13,52162
1348610684,5809,251.0000000000000000,13.6057996749877930,34.3009986877441400,205.9246978759765600,377.0484008789062500,13.5970201492309570,34.4833106994628900,49,111,86,81,69,15216,2147728539,2147454390,2148090322,2147874532,2147597787,2147142061,2148249170,2147208813,1648,4,14,43174
1348610802,5808,239.7799987792968800,14.1436996459960940,34.3218994140625000,210.6210937500000000,360.1236877441406000,14.1180801391601560,33.9536018371582000,48,103,86,80,68,15213,2147727222,2147483035,2148177417,2147872877,2147595108,2147166473,2148287204,2147212544,1036,3,14,36055
1348610978,5808,229.2700042724609400,14.5895996093750000,34.3618011474609400,215.1445007324218800,344.8013000488281000,14.5889797210693360,33.4697189331054700,48,106,89,80,67,15214,2147731684,2147508699,2148235867,2147870208,2147593782,2147187483,2148317339,2147214921,3336,4,15,21240
1348611174,5807,217.7200012207031200,15.5587997436523440,34.4510002136230500,216.1504974365234400,312.0692138671875000,15.5927095413208000,32.9321212768554700,50,103,87,80,67,15212,2147734656,2147553764,2148334582,2147870902,2147594304,2147215926,2148358857,2147220781,3031,3,14,6590
1348611339,5804,207.1699981689453000,16.9839992523193360,34.6343002319335940,217.3390960693359400,267.2965087890625000,16.9621505737304700,32.2263107299804700,49,102,88,81,66,15210,2147739090,2147584365,2148374345,2147872256,2147589860,2147240091,2148373110,2147223021,2832,3,14,22093
1348611480,5808,198.4900054931640600,17.4738998413085940,34.7149009704589840,220.0075988769531200,251.4315948486328000,17.4468193054199220,31.8612709045410160,51,107,88,81,66,15206,2147758354,2147684982,2148589266,2147871094,2147595611,2147313216,2148478518,2147227702,2961,3,14,63733
1348611557,5805,193.9900054931640600,18.0888996124267580,34.8021011352539060,218.5760040283203000,231.0455932617187500,18.0694103240966800,31.6540908813476560,51,102,88,80,66,15203,2147754624,2147653165,2148480685,2147871561,2147591853,2147292141,2148411757,2147226304,816,3,14,26031
1348611634,5811,190.5500030517578000,18.4860992431640620,34.8630981445312500,219.3278045654297000,218.6401062011718800,18.4482498168945300,31.4437198638916000,52,104,87,80,64,15202,2147789129,2147804352,2148814418,2147872237,2147603593,2147384722,2148584896,2147238884,349,3,15,12917
1348611746,5805,187.1699981689453000,18.7779006958007800,34.9161987304687500,222.2543945312500000,208.1383056640625000,18.7689895629882800,31.1483497619628900,54,104,89,80,64,15203,2147738477,2147549357,2148231780,2147872402,2147584850,2147241782,2148301302,2147222500,2808,3,15,6462
1348611911,5808,182.8800048828125000,19.0275993347167970,34.9617996215820300,225.9761962890625000,199.7765045166015600,19.0244102478027340,30.8454608917236330,56,105,90,81,64,15199,2147805906,2147852946,2148871597,2147874477,2147613074,2147431890,2148606427,2147244992,2211,3,15,50525
1348612031,5807,176.8399963378906200,19.5340003967285160,35.0519981384277340,225.9757995605468800,184.1894989013672000,19.5006904602050780,30.6362895965576170,56,106,88,81,65,15192,2147855771,2148004580,2149162724,2147874834,2147633133,2147526235,2148758217,2147251428,2503,3,15,55462
1348612086,5811,173.1100006103515600,19.6084995269775400,35.0731010437011700,227.4365997314453000,181.5092926025390600,19.5826091766357420,30.5277595520019530,56,106,89,80,63,15195,2147887725,2148094957,2149337014,2147876169,2147648804,2147593645,2148853229,2147260406,2689,3,15,34346
1348612141,5809,169.0800018310547000,19.6224994659423830,35.0765991210937500,228.6416015625000000,180.2241973876953000,19.6218891143798830,30.4508895874023440,57,105,89,81,63,15192,2147915721,2148178395,2149488173,2147877833,2147666605,2147654866,2148938194,2147269513,3394,3,15,1697
1348612196,5806,164.9499969482422000,19.6951007843017580,35.0913009643554700,229.0131988525390600,177.2890014648437500,19.7116298675537100,30.3935508728027340,56,109,90,80,62,15192,2147963364,2148294656,2149709933,2147879314,2147689225,2147735268,2149049206,2147274276,233,2,15,44585
1348612251,5807,161.0800018310547000,19.8148994445800780,35.1076011657714840,229.3881988525390600,173.9140014648437500,19.8148193359375000,30.3301792144775400,59,109,93,81,63,15194,2148008713,2148401252,2149907163,2147882194,2147710043,2147814765,2149154624,2147283574,435,3,15,21560
1348612337,5811,156.2400054931640600,20.0256996154785160,35.1395988464355500,229.4673004150390600,167.1800994873047000,20.0207595825195300,30.2373294830322270,60,109,88,81,62,15188,2148081014,2148569024,2150208548,2147884973,2147743734,2147926912,2149316004,2147293110,3028,2,15,15429
1348612436,5808,153.0399932861328000,20.1086997985839840,35.1540985107421900,230.3630981445312500,164.4844055175781200,20.1032199859619140,30.1578102111816400,63,108,88,82,63,15187,2148102116,2148583314,2150228809,2147881453,2147756937,2147942537,2149323958,2147293046,2605,2,16,39974
1348612643,5810,149.3600006103515600,20.3754005432128900,35.1929016113281250,231.4380035400390600,156.0491943359375000,20.3613300323486330,29.9947204589843750,67,114,87,82,62,15173,2148182125,2148731958,2150540242,2147884717,2147803209,2148045001,2149492425,2147300653,2193,2,16,48818
1348612786,5809,144.6000061035156200,20.5503997802734380,35.2177009582519500,232.9208984375000000,149.6804046630859400,20.5562992095947270,29.8400993347167970,73,117,91,82,63,15167,2148304548,2148935286,2150869266,2147891574,2147864841,2148166838,2149652004,2147313508,2607,2,16,49385
1348612874,5807,140.4299926757812500,20.6758995056152340,35.2295989990234400,233.4199981689453000,145.8524932861328000,20.6735191345214840,29.7661495208740230,79,114,90,82,62,15163,2148435940,2149181659,2151323483,2147897901,2147924809,2148303305,2149845184,2147327515,2380,2,15,23423
1348612952,5807,135.9299926757812500,20.7808990478515620,35.2394981384277340,234.0121002197265600,142.5970001220703000,20.7732391357421880,29.6957607269287100,84,115,90,82,63,15149,2148638957,2149590628,2152095661,2147907099,2148030637,2148546166,2150201353,2147354148,1441,2,15,25860
1348613007,5810,132.2400054931640600,20.8171005249023440,35.2445983886718750,234.5110931396484400,141.0767059326172000,20.8198204040527340,29.6522407531738280,89,119,90,82,63,15149,2148826057,2149934125,2152726701,2147919414,2148116114,2148739355,2150493668,2147377508,1008,2,15,6459
1348613073,5808,128.2599945068359400,20.9370994567871100,35.2503013610839840,235.0254058837890600,137.5966033935547000,20.9264602661132800,29.5827407836914060,96,125,92,83,62,15135,2149060352,2150363620,2153483337,2147933147,2148224612,2148950546,2150808868,2147405330,1256,3,15,18689
1348613150,5810,124.1699981689453100,21.0471992492675780,35.2568016052246100,235.2079925537109400,133.5962982177734400,21.0490703582763670,29.5224399566650400,107,128,91,83,62,15119,2149350921,2150856804,2154322377,2147948964,2148350656,2149161444,2151121069,2147425298,1870,3,16,37563
1348613227,5810,120.7099990844726600,21.1903991699218750,35.2682991027832000,237.3123931884765600,129.1033020019531200,21.1868400573730470,29.3656196594238280,125,127,90,83,63,15095,2149631798,2151278582,2154954752,2147971072,2148450075,2149289078,2151313179,2147445961,2416,3,15,12905
1348613328,5810,116.8799972534179700,21.3766994476318360,35.2717018127441400,240.2539978027343800,123.2375030517578100,21.3667697906494140,29.1545906066894530,143,129,93,84,61,15067,2150125485,2152101321,2156092937,2147992027,2148614811,2149512301,2151603529,2147478765,1942,2,15,45647
1348613438,5809,112.6299972534179700,21.4521007537841800,35.2715988159179700,242.6318054199218800,120.5317993164062500,21.4498004913330080,29.0116291046142580,158,130,93,85,62,15060,2151132342,2153802715,2158500388,2148043337,2148992868,2150136466,2152455515,2147560868,1970,2,15,51076
1348613526,5809,108.8600006103515600,21.5457992553710940,35.2717018127441400,244.8318939208984400,117.6720962524414000,21.5375804901123050,28.8760700225830080,151,126,92,86,61,15057,2152499803,2156146249,2161850944,2148121188,2149528256,2151038262,2153661348,2147669952,2003,2,15,30786
1348613627,5808,104.1299972534179700,21.5995006561279300,35.2692985534668000,245.4497985839843800,115.0490036010742200,21.6181106567382800,28.8151798248291000,134,125,93,83,61,15066,2154292544,2159055826,2165748041,2148230528,2150231460,2152187547,2155078601,2147810450,1095,2,16,42893
1348613693,5816,100.4599990844726600,21.7129001617431640,35.2644996643066400,246.4329071044922000,112.1961975097656200,21.7057209014892580,28.7353801727294920,114,122,92,84,62,15084,2155756818,2161196306,2168281499,2148331885,2150892973,2153203904,2156229001,2147927424,1800,2,16,44376
1348613748,5805,97.4300003051757800,21.7635993957519530,35.2635002136230500,246.7364959716797000,109.6836013793945300,21.7829093933105470,28.6901092529296880,118,126,93,84,61,15070,2157379584,2163525805,2171011913,2148444489,2151618724,2154305654,2157432667,2148049481,2035,2,16,34419
1348613803,5808,94.6699981689453100,22.0303993225097660,35.2658996582031250,245.0623016357422000,102.2052001953125000,22.0127506256103500,28.6698703765869140,136,129,94,85,61,15022,2159100333,2166209133,2174249179,2148559277,2152298843,2155334363,2158590665,2148161810,1656,2,15,40763
1348613858,5810,92.3899993896484400,22.0881004333496100,35.2731018066406250,243.9199981689453000,100.0434036254882800,22.0792198181152340,28.6933708190917970,143,129,92,84,62,15030,2160590729,2168023616,2175933010,2148633746,2152838619,2156071222,2159349403,2148254162,653,3,15,11558
1348613915,5808,90.1200027465820300,22.2213001251220700,35.2888984680175800,241.1557006835937500,95.7959365844726600,22.2098808288574220,28.7641906738281250,146,131,93,84,62,15012,2163497051,2172336868,2180877028,2148822171,2153838601,2157556690,2160951232,2148433481,243,2,15,35473
1348613970,5808,87.9000015258789000,22.2842006683349600,35.2928009033203100,240.3533020019531200,93.4867172241211000,22.2809391021728500,28.7712001800537100,130,126,92,85,62,15010,2166128905,2175991506,2184591725,2149005485,2154780278,2158829650,2162173385,2148590281,2998,2,16,36146
1348614025,5808,85.5699996948242200,22.3589000701904300,35.2975997924804700,240.8363037109375000,91.0723037719726600,22.3552494049072270,28.7188701629638670,104,121,92,83,60,15046,2169593353,2180563611,2189137252,2149215177,2156209161,2160827830,2164111670,2148808813,2621,2,16,7105
1348614080,5811,83.0100021362304700,22.5408992767334000,35.2905006408691400,241.6625061035156200,85.6761627197265600,22.5214195251464840,28.6134395599365230,78,118,95,84,62,15085,2172628205,2184190509,2192750665,2149505124,2157776649,2163062518,2166238281,2149054226,2656,2,16,24975
1348614135,5804,80.3199996948242200,22.7614994049072270,35.2919006347656250,242.2487030029297000,78.3070602416992200,22.7485198974609380,28.4944095611572270,73,119,91,84,59,15090,2176521499,2189388470,2198496192,2149903369,2159694016,2165784630,2168774747,2149368484,2137,2,16,35818
1348614190,5813,77.8300018310546900,22.8577995300292970,35.2980003356933600,243.4624938964843800,75.4011764526367200,22.8381309509277340,28.4037494659423830,73,117,95,83,60,15086,2178436461,2191692690,2200871698,2150155062,2160994276,2167668086,2170532708,2149562267,1808,2,16,46865
1348614247,5807,75.5999984741211000,22.9092006683349600,35.2999992370605500,244.1555023193359400,73.5195999145507800,22.8961696624755860,28.3493900299072270,73,119,94,83,60,15093,2182321435,2197080850,2207359798,2150696841,2162819849,2170305124,2173115648,2149891620,1961,2,16,52698
1348614302,5809,73.8000030517578100,22.9505004882812500,35.3007011413574200,244.5281066894531200,72.0804672241211000,22.9405708312988280,28.3147602081298830,73,121,91,83,62,15088,2181179520,2194631524,2203635492,2150614153,2162638710,2169761115,2172162112,2149791899,1832,2,16,22798
1348614357,5807,72.4000015258789000,22.9755992889404300,35.3017005920410160,244.9665069580078000,71.1835479736328100,22.9682502746582030,28.2842502593994140,71,120,90,84,59,15087,2176944210,2187437010,2194005970,2150221897,2161015725,2166825270,2168422336,2149417225,1568,2,16,42009
1348614467,5803,70.6800003051757800,23.1352005004882800,35.3017005920410160,245.7481994628906200,67.1443099975586000,23.0929298400878900,28.1994590759277340,71,120,91,85,60,15089,2182526665,2194153380,2201157366,2150694061,2163603328,2170238070,2171439570,2149751003,1343,2,16,56578
1348614611,5806,68.0599975585937500,23.2143993377685550,35.3039016723632800,247.1734008789062500,63.3171081542968750,23.2111301422119140,28.0894203186035160,67,123,92,84,60,15075,2199789248,2215379611,2224528237,2152532278,2172799515,2182712329,2183521115,2151158848,1192,2,16,16964
1348614666,5809,65.8399963378906200,23.2474002838134770,35.3022003173828100,247.5485992431640600,62.2092208862304700,23.2453594207763670,28.0593109130859380,68,119,93,84,59,15082,2201969709,2216667446,2225019373,2152962139,2174181467,2183979236,2183903881,2151252160,879,2,15,12581
1348614721,5809,63.4700012207031250,23.3327007293701170,35.2840003967285160,247.3309020996093800,60.5218696594238300,23.2975006103515620,28.0479297637939450,66,121,91,85,60,15085,2201090450,2213486692,2219977792,2153049014,2174406326,2183372982,2182507428,2151162340,716,2,15,37570
1348614776,5807,61.3499984741210940,23.4139003753662100,35.2809982299804700,246.0287933349609400,57.0050582885742200,23.4062194824218750,28.0610694885253900,65,122,90,85,61,15087,2204724818,2216233691,2221740278,2153493065,2177077814,2186445220,2184942619,2151512886,291,2,16,17325
1348614831,5809,59.7299995422363300,23.4300003051757800,35.2775993347168000,245.3065032958984400,56.2022514343261700,23.4310398101806640,28.0825996398925780,63,120,93,84,58,15095,2214834203,2228110317,2234658605,2155037174,2182156288,2192968045,2190896128,2152273307,3227,2,16,63064
1348614909,5809,57.3699989318847660,23.4694995880126950,35.2737998962402340,244.8099975585937500,54.7358894348144500,23.4763908386230470,28.0861892700195300,62,124,91,84,57,15088,2222076672,2233525339,2237953846,2156029760,2186299428,2196954349,2193427520,2152667565,3012,2,16,32857
1348614964,5807,55.3899993896484400,23.5312995910644530,35.1888008117675800,245.9942932128906200,53.0161781311035160,23.5295906066894530,28.0129604339599600,64,124,94,86,58,15062,2244493037,2257761600,2262708982,2159060242,2198636937,2211841490,2206502518,2154414189,3277,2,16,31311
1348615019,5808,54.2000007629394500,23.5711002349853500,35.1735000610351560,246.7330017089843800,50.8828201293945300,23.5956001281738280,27.9543590545654300,63,126,91,84,59,15043,2225454665,2233082377,2234525668,2156483355,2190605019,2200088941,2194598912,2152941202,82,2,16,60202
1348615118,5809,52.4599990844726560,24.0004997253417970,35.1537017822265600,246.6775970458984400,41.6996994018554700,23.8799991607666000,27.8432102203369140,66,130,91,86,58,15049,2272447780,2285760365,2289333440,2163219337,2217348397,2231900114,2222287460,2156656000,550,2,16,239
1348615229,5808,50.1399993896484400,24.2816009521484380,35.1837997436523440,246.2980957031250000,29.0221996307373050,24.2732906341552730,27.7033901214599600,63,130,97,87,50,15038,2295006454,2309630482,2312814710,2167393581,2232294692,2247894180,2235271780,2158690029,2855,2,16,9815
1348615295,5810,48.2700004577636700,24.5995998382568360,35.1915016174316400,245.8403015136718800,19.5093193054199220,24.5689506530761720,27.6063594818115230,60,130,93,87,56,15039,2212646299,2213733275,2210465764,2155045412,2187377161,2191308105,2183919113,2151839177,2481,2,16,13469
1348615383,5811,46.4099998474121100,24.9326000213623050,35.2080993652343750,245.9839019775390600,9.4612417221069340,24.8817691802978500,27.4770507812500000,60,127,97,85,57,15029,2218327222,2219454848,2216505197,2156269677,2191630857,2195823716,2187549238,2152418450,3145,2,16,11112
1348615582,5806,44.4000015258789060,25.6000995635986330,35.2458992004394500,242.8831024169922000,-11.1319704055786130,25.5247001647949220,27.3602104187011720,60,131,95,85,57,15028,2189104576,2186534838,2181974491,2151734957,2174692324,2174339209,2168041353,2149825206,2283,1,16,58515
1348616056,5808,42.3300018310546900,26.0995006561279300,35.2909011840820300,235.7333984375000000,-29.3903102874755860,26.0969200134277340,27.4539909362792970,55,125,96,87,58,15038,2201684818,2198979337,2193676214,2154012937,2189078016,2187127542,2176689252,2151055945,2621,2,16,13708
1348616145,5809,39.4300003051757800,26.1016006469726560,35.2910003662109400,235.1468963623047000,-29.5135402679443360,26.1007900238037100,27.4789390563964840,55,126,95,85,57,15038,2218931154,2216800429,2211311378,2157981878,2207802240,2205136466,2189870299,2152993051,3095,1,16,30102
1348616200,5806,36.7999992370605500,26.1025009155273440,35.2904014587402340,235.1414947509765600,-29.6572303771972660,26.1053009033203120,27.4773006439209000,55,125,95,86,61,15033,2260167003,2261076416,2256706294,2168526509,2253767049,2252481536,2226588891,2158546038,3304,1,16,1249
1348616255,5809,34.2500000000000000,26.1042003631591800,35.2909011840820300,235.2171936035156200,-29.8045501708984380,26.1099300384521500,27.4722099304199220,55,124,95,86,57,15044,2281767789,2285086052,2282112905,2177376557,2279066660,2275855908,2243005101,2161701330,3141,2,15,42309
1348616310,5807,31.9300003051757800,26.1095008850097660,35.2893981933593750,235.1542053222656200,-29.9016208648681640,26.1129798889160160,27.4737205505371100,54,126,94,85,57,15041,2254565641,2253385819,2247599177,2170334400,2255652461,2247533339,2218361709,2158179446,3111,2,16,55791